{"data":{"norad_id":43910,"intl_designator":"2018-112B","name":"YUNHAI-2 01B","alt_names":[],"object_type":"PAYLOAD","status":"ACTIVE","operator":null,"country":"PRC","launch_date":"2018-12-29","launch_site_code":"JSC","launch_vehicle":null,"mission":null,"orbit_class":"UNKNOWN","rcs_meters":null,"size_class":null,"mass_kg":null,"dimensions":null,"purposes":[],"wikipedia_slug":null,"has_3d_model":false,"image_url":null,"decayed_at":null,"tle_current":{"epoch":"2026-09-20T00:27:13.704768Z","epoch_age_seconds":99150,"freshness":"FRESH","line1":"1 43910U 18112B   26263.01890862 -.00000149  00000+0  48136-5 0  9994","line2":"2 43910  50.0106  65.3071 0005016 194.5188 165.5584 14.29033183403804","mean_motion":14.29033183,"eccentricity":0.0005016,"inclination_deg":50.0106,"raan_deg":65.3071,"arg_perigee_deg":194.5188,"mean_anomaly_deg":165.5584,"bstar":4.8136e-6,"rev_number":40380,"period_min":100.76742913534,"perigee_km":791.3662986832,"apogee_km":798.56235393375,"semimajor_km":7173.1013263085,"source":"CELESTRAK","updated_at":"2026-09-20T09:00:14.417678Z"}}}